Voltar ao catálogo

CERES 2

AtivoMilitarLEO
NORAD 49465·PAYLOAD·🇫🇷 France

Lançado Nov 16, 2021 de Guiana Space Centre

Loading…

Próximas Passagens (próximas 24 horas)

TLE

ObsoletoSource: Mike McCants

Época: Aug 26, 2026, 02:20 UTC

1 49465U 21105B   26238.09729838 0.00000276  00000-0  46578-4 0    06
2 49465  75.0015 215.8241 0003039 234.8271 125.1746 14.69461467    07

Acompanhe CERES 2 em tempo real com AllMySat

Download on the App Store